User: anonymous   Login
Location: Muenchen
(48.1800°N, 11.5800°E)
Time: 00:31:27
(UTC+01:00)
Language:

Cosmos 2233 Rocket - Orbit

View from above orbital plane
View from above orbital plane
View from above satellite
View from above satellite

Ground track
Ground track

The orbit data is extracted from the following two-line orbital elements,

1 22488U 93008B   14355.59264277  .00000092  00000-0  76515-4 0   185
2 22488 082.9422 034.5551 0024237 249.5065 275.4798 13.77646187 99151
Epoch (UTC): 21 December 2014 14:13:24
Eccentricity: 0.0024237
inclination: 82.9422°
perigee height: 954 km
apogee height: 990 km
right ascension of ascending node: 34.5551°
argument of perigee: 249.5065°
revolutions per day: 13.77646187
mean anomaly at epoch: 275.4798°
orbit number at epoch: 9915

The dashed part of the orbit path shows where the satellite is in the earth's shadow,  

DLR